Location: Aboncourt
(47.7710°N, 5.9826°E)
Time: 03:17:56
(UTC+00:00)

Cosmos 1602 Rocket - Pass Details

Date: 05 July 2020
Orbit: 604 x 633 km, 82.5° (Epoch: 03 August)

Event Time Altitude Azimuth Distance (km) Brightness Sun altitude
Rises 20:22:57 0° 195° (SSW) 2,883 6.7 -6.7°
Reaches altitude 10° 20:25:10 10° 198° (SSW) 1,986 5.9 -7.0°
Maximum altitude 20:29:33 67° 281° (W) 683 4.0 -7.5°
Drops below altitude 10° 20:34:00 10° 4° (N) 2,019 6.9 -8.0°
Sets 20:36:17 0° 8° (N) 2,934 7.7 -8.3°
